TimeCST,TemperatureF,Dew PointF,Humidity,Sea Level PressureIn,VisibilityMPH,Wind Direction,Wind SpeedMPH,Gust SpeedMPH,PrecipitationIn,Events,Conditions,WindDirDegrees,DateUTC
12:30 AM,53.6,53.6,100,30.02,0.2,Calm,Calm,-,N/A,Fog,Fog,0,2012-12-09 06:30:00
12:49 AM,53.6,53.6,100,30.02,0.2,Calm,Calm,-,N/A,Fog,Fog,0,2012-12-09 06:49:00
12:53 AM,54.0,54.0,100,30.02,0.2,Calm,Calm,-,N/A,Fog,Fog,0,2012-12-09 06:53:00
1:01 AM,53.6,53.6,100,30.02,0.5,Calm,Calm,-,N/A,Fog,Fog,0,2012-12-09 07:01:00
1:21 AM,53.6,53.6,100,30.01,0.5,NNW,3.5,-,N/A,Fog,Fog,330,2012-12-09 07:21:00
1:33 AM,53.6,53.6,100,30.02,0.2,NW,3.5,-,N/A,Fog,Fog,320,2012-12-09 07:33:00
1:44 AM,53.6,53.6,100,30.01,0.5,NW,3.5,-,N/A,Fog,Fog,320,2012-12-09 07:44:00
1:53 AM,54.0,54.0,100,30.01,0.5,Calm,Calm,-,N/A,Fog,Fog,0,2012-12-09 07:53:00
2:01 AM,55.4,55.4,100,30.01,0.2,NW,3.5,-,N/A,Fog,Fog,320,2012-12-09 08:01:00
2:53 AM,54.0,54.0,100,30.01,0.2,Calm,Calm,-,0.01,Fog,Fog,0,2012-12-09 08:53:00
3:03 AM,53.6,53.6,100,30.01,0.2,Calm,Calm,-,N/A,Fog,Fog,0,2012-12-09 09:03:00
3:53 AM,53.1,53.1,100,30.01,0.2,NW,3.5,-,N/A,Fog,Fog,310,2012-12-09 09:53:00
4:45 AM,53.6,53.6,100,30.02,0.5,NW,3.5,-,N/A,Fog,Fog,310,2012-12-09 10:45:00
4:53 AM,54.0,54.0,100,30.02,0.5,NW,3.5,-,N/A,Fog,Fog,310,2012-12-09 10:53:00
5:00 AM,53.6,53.6,100,30.02,0.2,Calm,Calm,-,N/A,Fog,Fog,0,2012-12-09 11:00:00
5:07 AM,55.4,55.4,100,30.03,0.5,Calm,Calm,-,N/A,Fog,Fog,0,2012-12-09 11:07:00
5:16 AM,53.6,53.6,100,30.02,0.5,Calm,Calm,-,N/A,Fog,Fog,0,2012-12-09 11:16:00
5:32 AM,53.6,53.6,100,30.03,0.2,Calm,Calm,-,N/A,Fog,Fog,0,2012-12-09 11:32:00
5:42 AM,51.8,51.8,100,30.03,0.5,Calm,Calm,-,N/A,Fog,Fog,0,2012-12-09 11:42:00
5:53 AM,53.1,53.1,100,30.04,0.8,Calm,Calm,-,N/A,,Mist,0,2012-12-09 11:53:00
6:42 AM,51.8,51.8,100,30.05,0.2,Calm,Calm,-,N/A,Fog,Fog,0,2012-12-09 12:42:00
6:53 AM,51.1,51.1,100,30.05,0.2,Calm,Calm,-,N/A,Fog,Fog,0,2012-12-09 12:53:00
7:02 AM,53.6,53.6,100,30.05,1.2,Calm,Calm,-,N/A,,Scattered Clouds,0,2012-12-09 13:02:00
7:10 AM,53.6,53.6,100,30.05,5.0,NW,3.5,-,N/A,,Scattered Clouds,320,2012-12-09 13:10:00
7:53 AM,60.1,59.0,96,30.06,5.0,Calm,Calm,-,N/A,,Scattered Clouds,0,2012-12-09 13:53:00
8:53 AM,66.0,64.0,93,30.08,10.0,ESE,3.5,-,N/A,,Mostly Cloudy,120,2012-12-09 14:53:00
9:53 AM,69.1,64.0,84,30.08,10.0,SSE,6.9,-,N/A,,Mostly Cloudy,150,2012-12-09 15:53:00
10:53 AM,71.1,64.9,81,30.06,10.0,SSE,8.1,-,N/A,,Mostly Cloudy,150,2012-12-09 16:53:00
11:53 AM,72.0,64.0,76,30.03,10.0,SSE,8.1,-,N/A,,Overcast,150,2012-12-09 17:53:00
12:53 PM,70.0,66.0,87,30.01,10.0,South,6.9,-,0.00,Rain,Light Rain,170,2012-12-09 18:53:00
1:02 PM,71.6,66.2,83,30.01,10.0,SSE,8.1,-,0.00,,Overcast,160,2012-12-09 19:02:00
1:11 PM,71.6,66.2,83,30.01,10.0,SSE,10.4,-,0.00,,Overcast,160,2012-12-09 19:11:00
1:53 PM,72.0,66.0,81,30.00,10.0,SSE,9.2,-,0.00,,Overcast,160,2012-12-09 19:53:00
2:53 PM,71.1,66.0,84,29.99,10.0,SSE,9.2,-,N/A,,Mostly Cloudy,160,2012-12-09 20:53:00
3:53 PM,70.0,66.9,90,29.99,10.0,SSE,8.1,-,N/A,,Mostly Cloudy,150,2012-12-09 21:53:00
4:53 PM,70.0,66.9,90,29.99,10.0,SSE,8.1,-,N/A,,Overcast,160,2012-12-09 22:53:00
5:53 PM,69.1,68.0,96,29.98,10.0,SSE,9.2,-,N/A,,Overcast,150,2012-12-09 23:53:00
6:53 PM,69.1,68.0,96,29.99,10.0,SSE,8.1,-,N/A,,Overcast,160,2012-12-10 00:53:00
7:03 PM,69.8,68.0,94,29.99,10.0,South,6.9,-,N/A,,Overcast,180,2012-12-10 01:03:00
7:53 PM,69.1,68.0,96,29.99,10.0,South,8.1,-,N/A,,Overcast,170,2012-12-10 01:53:00
8:20 PM,69.8,68.0,94,29.99,10.0,Variable,3.5,-,N/A,,Overcast,0,2012-12-10 02:20:00
8:31 PM,69.8,68.0,94,29.99,10.0,South,6.9,-,N/A,,Overcast,190,2012-12-10 02:31:00
8:51 PM,69.8,68.0,94,29.98,10.0,SSE,6.9,-,N/A,,Mostly Cloudy,160,2012-12-10 02:51:00
8:53 PM,69.1,68.0,96,29.98,10.0,SSE,8.1,-,N/A,,Mostly Cloudy,160,2012-12-10 02:53:00
9:35 PM,68.0,68.0,100,29.98,10.0,South,5.8,-,N/A,,Overcast,170,2012-12-10 03:35:00
9:46 PM,68.0,68.0,100,29.97,10.0,SSE,5.8,-,N/A,,Overcast,160,2012-12-10 03:46:00
9:53 PM,68.0,68.0,100,29.97,10.0,SSE,5.8,-,N/A,,Overcast,160,2012-12-10 03:53:00
10:53 PM,68.0,66.9,96,29.96,10.0,SSE,6.9,-,N/A,,Overcast,160,2012-12-10 04:53:00
11:14 PM,68.0,66.2,94,29.96,10.0,South,4.6,-,N/A,,Mostly Cloudy,170,2012-12-10 05:14:00
11:24 PM,68.0,66.2,94,29.96,10.0,South,4.6,-,N/A,,Mostly Cloudy,170,2012-12-10 05:24:00
11:36 PM,68.0,66.2,94,29.96,10.0,South,4.6,-,N/A,,Scattered Clouds,170,2012-12-10 05:36:00
11:53 PM,68.0,66.9,96,29.96,10.0,South,3.5,-,N/A,,Partly Cloudy,170,2012-12-10 05:53:00